STARLINK-32310, 61662

Orbit data source: Space-Track

STARLINK-32310, 61662 is a payload satellite owned by SpaceX/Seattle (US) in LEO that was launched on Sat, 26 Oct 2024 UTC via an FALCON 9 launch vehicle from the Air Force Eastern Test Range (AFETR). Payload-class satellites include a variety of spacecraft equipped with specific instruments for various scientific and technological missions. These include communications satellites like Starlink; space stations such as the ISS; scientific satellites like the Hubble; Earth observation satellites from companies like Planet Labs, Umbra, and HawkEye 360; GPS; miniature CubeSats for education and research; and military/defense satellites.

Loading next visibility...
Identifier
61662, 2024-193B
Orbit
LEO
Country
Flag of USUS
Related business
Manufacturer
SpaceX/Seattle
Mission
Operational Commercial Communications
Bus & Motor
STARLINK V2M, Unknown motor
Mass
730 kg wet, ~700 kg dry
Launch date (UTC)
2024-10-26 (1 year ago)
Launch vehicle
FALCON 9
Launch site
Air Force Eastern Test Range (AFETR)
Object type
Payload
Rocket body
Debris
Shape & HBR
Box + 2 Pan, 17.7 m
Radar Cross Section
33.884 m², Large (>1 m²)

Expand to show TLE details & history
Last TLE update: 8 hours ago

TLE from 8 hours ago
0 STARLINK-32310
1 61662U 24193B   25311.26776696 -.00003833  00000-0 -11745-3 0  9991
2 61662  53.1610 299.6208 0001199  95.7156 264.3982 15.30172303 57784
Epoch: 2025-11-07T06:25Z
TLE epoch observation values (Epoch: 2025-11-07T06:25:35.065Z)
Latitude
0.00003°
Longitude
156.51054°
Altitude
476.278 km
Speed
7.629 km/s
True Right ascension
19h 58m 28s
True Declination
0° 00' 00"
Sunlit
Object was in daylight at epoch
Visualization orbit readout
Latitude
Unknown
Longitude
Unknown
Altitude
Unknown
Speed
Unknown
Apparent Right ascension
Unknown
Apparent Declination
Unknown
Sunlit
N/A
Visualization observer readout
Local Sidereal Time
10:11:48
Azimuth
Unknown
Elevation
Unknown
Doppler factor
Unknown
Orbital elements
Apogee altitude
476.376 km
Perigee altitude
474.732 km
Semi-major axis
6,853.691 km
Eccentricity
0.00012
Inclination
53.161°
RAAN
299.6208°
Arg. of periapsis
95.7156°
True anomaly
264.38453°
Mean anomaly
264.3982°
Eccentric anomaly
264.39136°
Mean motion
3.82522 °/min
Orbital period
94.11 mins
BSTAR
-0.00011745
Loading maneuver chart data...
Computing Atmospheric mass density...
Loading historical data...
Loading historical data...
Loading historical data...
Loading historical data...
Loading historical data...
Loading historical data...
Loading historical data...

Documentation

Showing up to 5 results
|